Chippewa, MI

8:24 AM EST on November 18, 2019 (GMT -0500)
Chippewa County International

Weather History for KCIU - September, 2019

Change the Weather History Date:

Monday, September 16, 2019

  Actual Average Record
Temperature  
Mean Temperature 60 °F -  
Max Temperature 66 °F 63 °F 82 °F (2017)
Min Temperature 53 °F 39 °F 31 °F (1981)
Degree Days  
Heating Degree Days 6    
Growing Degree Days 10 (Base 50)    
Moisture  
Dew Point 57 °F    
Average Humidity 92    
Maximum Humidity 100    
Minimum Humidity 78    
Precipitation  
Precipitation 0.00 in - - ()
Sea Level Pressure  
Sea Level Pressure 30.15 in    
Wind  
Wind Speed 3 mph ()    
Max Wind Speed 7 mph    
Max Gust Speed -    
Visibility 7.0 miles    
Events Fog , Rain    
Averages and records for this station are not official NWS values.
T = Trace of Precipitation, MM = Missing Value Source: Averaged Metar Reports

Daily Weather History Graph

Daily Weather History Graph

Search for Another Location

Airport or City:

Astronomy

Sep. 16, 2019 Rise Set
Actual Time 7:16 AM EDT 7:47 PM EDT
Civil Twilight 6:46 AM EDT 8:17 PM EDT
Nautical Twilight 6:10 AM EDT 8:53 PM EDT
Astronomical Twilight 5:33 AM EDT 9:30 PM EDT
Moon 9:15 PM EDT (9/16) 9:28 AM EDT (9/16)
Length of Visible Light 13h 31m
Length of Day
12h 30m
Waning Gibbous, 94% of the Moon is Illuminated
Sep 16
Waning Gibbous
Sep 21
Last Quarter
Sep 28
New
Oct 5
First Quarter
Oct 13
Full

Hourly Weather History & Observations

Time (EDT) Temp. Dew Point Humidity Pressure Visibility Wind Dir Wind Speed Gust Speed Precip Events Conditions
12:56 AM 57.0 °F 55.0 °F 93% 30.08 in 10.0 mi ESE 3.5 mph - N/A   Overcast
1:56 AM 57.0 °F 55.0 °F 93% 30.09 in 10.0 mi ESE 5.8 mph - N/A   Overcast
2:56 AM 57.0 °F 55.0 °F 93% 30.09 in 10.0 mi ESE 6.9 mph - N/A   Overcast
3:56 AM 57.0 °F 55.9 °F 96% 30.09 in 10.0 mi ESE 5.8 mph - 0.00 in Rain Light Rain
4:56 AM 57.0 °F 55.0 °F 93% 30.10 in 10.0 mi ESE 5.8 mph - 0.00 in   Overcast
5:45 AM 57.2 °F 55.4 °F 94% 30.10 in 10.0 mi ESE 4.6 mph - N/A   Overcast
5:56 AM 57.0 °F 55.9 °F 96% 30.11 in 10.0 mi ESE 5.8 mph - N/A   Overcast
6:56 AM 57.0 °F 55.9 °F 96% 30.12 in 10.0 mi East 3.5 mph - N/A   Overcast
7:56 AM 55.9 °F 55.0 °F 97% 30.13 in 10.0 mi ENE 4.6 mph - N/A   Overcast
8:56 AM 57.0 °F 55.9 °F 96% 30.14 in 9.0 mi Calm Calm - N/A   Overcast
9:40 AM 57.2 °F 55.4 °F 94% 30.15 in 1.8 mi East 3.5 mph - N/A   Overcast
9:56 AM 57.0 °F 57.0 °F 100% 30.15 in 2.0 mi ESE 6.9 mph - N/A   Overcast
10:12 AM 57.2 °F 57.2 °F 100% 30.15 in 5.0 mi SE 6.9 mph - N/A   Overcast
10:56 AM 59.0 °F 57.0 °F 93% 30.15 in 10.0 mi SE 3.5 mph - N/A   Overcast
11:44 AM 60.8 °F 57.2 °F 88% 30.15 in 10.0 mi ESE 4.6 mph - N/A   Overcast
11:56 AM 61.0 °F 57.9 °F 90% 30.16 in 10.0 mi SSE 3.5 mph - N/A   Overcast
12:41 PM 62.6 °F 59.0 °F 88% 30.16 in 10.0 mi SE 3.5 mph - N/A   Overcast
12:56 PM 62.1 °F 57.9 °F 86% 30.17 in 10.0 mi SSE 4.6 mph - N/A   Overcast
1:56 PM 63.0 °F 57.9 °F 84% 30.17 in 8.0 mi SSE 3.5 mph - N/A   Overcast
2:05 PM 62.6 °F 57.2 °F 82% 30.16 in 10.0 mi SSE 3.5 mph - N/A   Overcast
2:56 PM 64.0 °F 57.9 °F 80% 30.16 in 10.0 mi East 3.5 mph - N/A   Overcast
3:35 PM 64.4 °F 59.0 °F 83% 30.15 in 10.0 mi Calm Calm - N/A   Overcast
3:56 PM 64.9 °F 59.0 °F 81% 30.15 in 8.0 mi Calm Calm - N/A   Overcast
4:56 PM 66.0 °F 60.1 °F 81% 30.15 in 10.0 mi Calm Calm - N/A   Overcast
5:56 PM 66.0 °F 60.1 °F 81% 30.15 in 10.0 mi SSE 4.6 mph - N/A   Mostly Cloudy
6:02 PM 66.2 °F 60.8 °F 83% 30.15 in 10.0 mi South 5.8 mph - N/A   Scattered Clouds
6:27 PM 66.2 °F 59.0 °F 78% 30.15 in 10.0 mi Calm Calm - N/A   Mostly Cloudy
6:56 PM 66.0 °F 60.1 °F 81% 30.16 in 10.0 mi ESE 6.9 mph - N/A   Overcast
7:56 PM 62.1 °F 59.0 °F 90% 30.16 in 10.0 mi SSW 3.5 mph - N/A   Mostly Cloudy
8:16 PM 60.8 °F 57.2 °F 88% 30.16 in 10.0 mi South 3.5 mph - N/A   Scattered Clouds
8:56 PM 59.0 °F 57.9 °F 96% 30.17 in 10.0 mi SSW 3.5 mph - N/A   Clear
9:35 PM 57.2 °F 57.2 °F 100% 30.18 in 1.5 mi Calm Calm - N/A   Clear
9:56 PM 55.9 °F 55.9 °F 100% 30.17 in 5.0 mi SE 3.5 mph - N/A   Clear
10:00 PM 55.4 °F 55.4 °F 100% 30.17 in 1.5 mi Calm Calm - N/A   Clear
10:08 PM 55.4 °F 55.4 °F 100% 30.17 in 0.8 mi SSE 3.5 mph - N/A   Clear
10:15 PM 55.4 °F 55.4 °F 100% 30.17 in 0.2 mi SSE 4.6 mph - N/A Fog Fog
10:31 PM 55.4 °F 55.4 °F 100% 30.18 in 0.5 mi SSW 3.5 mph - N/A Fog Fog
10:38 PM 55.4 °F 55.4 °F 100% 30.18 in 3.0 mi SSW 3.5 mph - N/A   Partly Cloudy
11:34 PM 55.4 °F 55.4 °F 100% 30.18 in 1.8 mi Calm Calm - N/A   Clear
11:37 PM 55.4 °F 55.4 °F 100% 30.18 in 0.8 mi Calm Calm - N/A   Clear
11:45 PM 53.6 °F 53.6 °F 100% 30.19 in 0.5 mi Calm Calm - N/A Fog Fog
11:52 PM 53.6 °F 53.6 °F 100% 30.19 in 0.5 mi Calm Calm - N/A Fog Fog
11:56 PM 53.1 °F 53.1 °F 100% 30.19 in 0.8 mi Calm Calm - N/A   Mist